,,PA_Meas_PMT16A,,PR_Meas_QMR101_102,,RH_Meas_QMH101,,SR_Meas_QMS101,,TA_Meas_QMH101,,GenWind,,GenWind,
time,status,PA,status,PR,status,RH,status,SR,status,TA,status,DirAvg,status,SpdAvg,
2016-04-04, 07:24:04,INVALID - VALUE NOT AVAILABLE,0,INVALID - VALUE NOT AVAILABLE,0,INVALID - VALUE NOT AVAILABLE,0,INVALID - VALUE NOT AVAILABLE,0,INVALID - VALUE NOT AVAILABLE,0,INVALID,360,INVALID,0,
2016-04-04, 07:25:04,VALID,918.7,VALID,0,VALID,104,VALID,84.6636,VALID,20.9706,VALID,196,VALID,0,
2016-04-04, 07:26:04,VALID,918.712,VALID,0,VALID,104,VALID,86.0604,VALID,21.0112,VALID,193,VALID,0,
2016-04-04, 07:28:04,VALID,918.75,VALID,0,VALID,104,VALID,89.1762,VALID,21.0876,VALID,196,VALID,0,
2016-04-04, 07:29:04,VALID,918.744,VALID,0,VALID,104,VALID,90.6803,VALID,21.1266,VALID,180,VALID,0,
2016-04-04, 07:30:04,VALID,918.782,VALID,0,VALID,104,VALID,92.3994,VALID,21.1461,VALID,182,VALID,0,
2016-04-04, 07:31:04,VALID,918.773,VALID,0,VALID,104,VALID,93.7961,VALID,21.1461,VALID,164,VALID,0,
2016-04-04, 07:32:04,VALID,918.788,VALID,0,VALID,104,VALID,95.0854,VALID,21.1657,VALID,173,VALID,0,
2016-04-04, 07:33:04,VALID,918.794,VALID,0,VALID,104,VALID,96.5896,VALID,21.2047,VALID,177,VALID,0,
2016-04-04, 07:34:04,VALID,918.8,VALID,0,VALID,104,VALID,97.7714,VALID,21.2437,VALID,177,VALID,0,
2016-04-04, 07:35:04,VALID,918.779,VALID,0,VALID,104,VALID,98.8459,VALID,21.2827,VALID,185,VALID,0,
2016-04-04, 07:36:04,VALID,918.787,VALID,0,VALID,104,VALID,100.243,VALID,21.3022,VALID,183,VALID,0,
2016-04-04, 07:37:04,VALID,918.795,VALID,0,VALID,104,VALID,101.747,VALID,21.2616,VALID,167,VALID,0,
2016-04-04, 07:38:04,VALID,918.811,VALID,0,VALID,104,VALID,103.573,VALID,21.2811,VALID,169,VALID,0,
2016-04-04, 07:39:04,VALID,918.83,VALID,0,VALID,104,VALID,105.292,VALID,21.3217,VALID,126,VALID,0,
2016-04-04, 07:40:04,VALID,918.82,VALID,0,VALID,104,VALID,107.119,VALID,21.3412,VALID,162,VALID,0,
2016-04-04, 07:41:04,VALID,918.869,VALID,0,VALID,104,VALID,109.59,VALID,21.3412,VALID,183,VALID,0,
2016-04-04, 07:42:04,VALID,918.891,VALID,0,VALID,104,VALID,112.921,VALID,21.3786,VALID,143,VALID,0,
2016-04-04, 07:43:04,VALID,918.919,VALID,0,VALID,104,VALID,115.607,VALID,21.4388,VALID,171,VALID,0,
2016-04-04, 07:44:04,VALID,918.927,VALID,0,VALID,104,VALID,119.797,VALID,21.4567,VALID,188,VALID,0,
2016-04-04, 07:45:04,VALID,918.934,VALID,0,VALID,104,VALID,128.177,VALID,21.5363,VALID,134,VALID,0,
2016-04-04, 07:46:04,VALID,918.952,VALID,0,VALID,104,VALID,135.698,VALID,21.5542,VALID,159,VALID,0,
2016-04-04, 07:47:04,VALID,918.97,VALID,0,VALID,104,VALID,140.211,VALID,21.6534,VALID,166,VALID,0,
2016-04-04, 07:48:04,VALID,918.961,VALID,0,VALID,104,VALID,143.326,VALID,21.6534,VALID,145,VALID,0,
2016-04-04, 07:49:04,VALID,918.964,VALID,0,VALID,104,VALID,143.864,VALID,21.6713,VALID,145,VALID,0,
2016-04-04, 07:50:04,VALID,918.964,VALID,0,VALID,104,VALID,136.128,VALID,21.7705,VALID,188,VALID,0,
2016-04-04, 07:51:04,VALID,918.996,VALID,0,VALID,104,VALID,134.409,VALID,21.8079,VALID,143,VALID,0,
2016-04-04, 07:52:04,VALID,919.031,VALID,0,VALID,104,VALID,134.624,VALID,21.8469,VALID,160,VALID,0,
2016-04-04, 07:53:04,VALID,919.058,VALID,0,VALID,104,VALID,132.26,VALID,21.8664,VALID,172,VALID,0,
2016-04-04, 07:54:04,VALID,919.078,VALID,0,VALID,104,VALID,129.574,VALID,21.8664,VALID,170,VALID,0,
2016-04-04, 07:55:04,VALID,919.13,VALID,0,VALID,104,VALID,136.235,VALID,21.8469,VALID,186,VALID,0,
2016-04-04, 07:56:04,VALID,919.15,VALID,0,VALID,104,VALID,137.417,VALID,21.8664,VALID,158,VALID,0,
2016-04-04, 07:57:04,VALID,919.203,VALID,0,VALID,104,VALID,136.235,VALID,21.9054,VALID,178,VALID,0,
2016-04-04, 07:58:04,VALID,919.212,VALID,0,VALID,104,VALID,131.078,VALID,21.9054,VALID,179,VALID,0,
2016-04-04, 07:59:04,VALID,919.232,VALID,0,VALID,104,VALID,128.714,VALID,21.9249,VALID,191,VALID,0,
2016-04-04, 08:00:04,VALID,919.245,VALID,0,VALID,104,VALID,126.566,VALID,21.964,VALID,179,VALID,0,
2016-04-04, 08:01:04,VALID,919.258,VALID,0,VALID,104,VALID,124.202,VALID,21.9835,VALID,170,VALID,0,
2016-04-04, 08:02:04,VALID,919.246,VALID,0,VALID,104,VALID,122.698,VALID,22.0437,VALID,178,VALID,0,
2016-04-04, 08:03:04,VALID,919.253,VALID,0,VALID,104,VALID,116.789,VALID,22.003,VALID,112,VALID,0,
2016-04-04, 08:04:04,VALID,919.265,VALID,0,VALID,104,VALID,114.64,VALID,22.0632,VALID,120,VALID,0,
2016-04-04, 08:05:04,VALID,919.27,VALID,0,VALID,104,VALID,113.565,VALID,22.0827,VALID,145,VALID,0,
2016-04-04, 08:06:04,VALID,919.305,VALID,0,VALID,104,VALID,112.491,VALID,22.1005,VALID,135,VALID,0,
2016-04-04, 08:07:04,VALID,919.311,VALID,0,VALID,104,VALID,111.416,VALID,22.1005,VALID,130,VALID,0,
2016-04-04, 08:08:04,VALID,919.327,VALID,0,VALID,104,VALID,110.879,VALID,22.0827,VALID,128,VALID,0,
2016-04-04, 08:09:04,VALID,919.356,VALID,0,VALID,104,VALID,110.557,VALID,22.042,VALID,147,VALID,0,
2016-04-04, 08:10:04,VALID,919.347,VALID,0,VALID,104,VALID,110.342,VALID,22.0615,VALID,147,VALID,0,
2016-04-04, 08:11:04,VALID,919.371,VALID,0,VALID,104,VALID,110.127,VALID,22.1005,VALID,143,VALID,0,
2016-04-04, 08:12:04,VALID,919.368,VALID,0,VALID,104,VALID,110.02,VALID,22.081,VALID,136,VALID,0,
2016-04-04, 08:13:04,VALID,919.402,VALID,0,VALID,104,VALID,110.127,VALID,22.1201,VALID,110,VALID,0,
2016-04-04, 08:14:04,VALID,919.425,VALID,0,VALID,104,VALID,110.45,VALID,22.1396,VALID,105,VALID,0,
2016-04-04, 08:15:04,VALID,919.45,VALID,0,VALID,104,VALID,111.094,VALID,22.1591,VALID,105,VALID,0,
2016-04-04, 08:16:04,VALID,919.455,VALID,0,VALID,104,VALID,111.631,VALID,22.0794,VALID,94,VALID,0,
2016-04-04, 08:17:04,VALID,919.447,VALID,0,VALID,104,VALID,112.491,VALID,22.042,VALID,82,VALID,0,
2016-04-04, 08:18:04,VALID,919.478,VALID,0,VALID,104,VALID,113.565,VALID,22.0225,VALID,85,VALID,0,
2016-04-04, 08:19:04,VALID,919.472,VALID,0,VALID,104,VALID,114.962,VALID,22.0225,VALID,87,VALID,0,
2016-04-04, 08:20:04,VALID,919.449,VALID,0,VALID,104,VALID,117.003,VALID,22.003,VALID,124,VALID,0,
2016-04-04, 08:21:04,VALID,919.423,VALID,0,VALID,104,VALID,119.045,VALID,22.0225,VALID,124,VALID,0,
2016-04-04, 08:22:04,VALID,919.426,VALID,0,VALID,104,VALID,120.979,VALID,22.0615,VALID,148,VALID,0,
2016-04-04, 08:23:04,VALID,919.398,VALID,0,VALID,104,VALID,123.772,VALID,22.1005,VALID,146,VALID,0,
2016-04-04, 08:24:04,VALID,919.427,VALID,0,VALID,104,VALID,126.136,VALID,22.0794,VALID,147,VALID,0,
2016-04-04, 08:25:04,VALID,919.391,VALID,0,VALID,104,VALID,128.929,VALID,22.1201,VALID,129,VALID,0,
2016-04-04, 08:26:04,VALID,919.406,VALID,0,VALID,104,VALID,130.971,VALID,22.1574,VALID,127,VALID,0,
2016-04-04, 08:27:04,VALID,919.379,VALID,0,VALID,104,VALID,135.913,VALID,22.1981,VALID,138,VALID,0,
2016-04-04, 08:28:04,VALID,919.42,VALID,0,VALID,104,VALID,142.897,VALID,22.2159,VALID,138,VALID,0,
2016-04-04, 08:29:04,VALID,919.411,VALID,0,VALID,104,VALID,150.31,VALID,22.255,VALID,138,VALID,0,
2016-04-04, 08:30:04,VALID,919.381,VALID,0,VALID,104,VALID,154.178,VALID,22.3152,VALID,138,VALID,0,
2016-04-04, 08:31:04,VALID,919.382,VALID,0,VALID,104,VALID,156.112,VALID,22.3916,VALID,138,VALID,0,
2016-04-04, 08:32:04,VALID,919.391,VALID,0,VALID,104,VALID,158.476,VALID,22.4501,VALID,140,VALID,0,
2016-04-04, 08:33:04,VALID,919.412,VALID,0,VALID,104,VALID,157.616,VALID,22.5103,VALID,148,VALID,0,
2016-04-04, 08:34:04,VALID,919.378,VALID,0,VALID,104,VALID,158.368,VALID,22.5477,VALID,151,VALID,0,
2016-04-04, 08:35:04,VALID,919.399,VALID,0,VALID,104,VALID,158.046,VALID,22.6665,VALID,151,VALID,0,
2016-04-04, 08:36:04,VALID,919.414,VALID,0,VALID,104,VALID,159.013,VALID,22.725,VALID,153,VALID,0,
2016-04-04, 08:37:04,VALID,919.44,VALID,0,VALID,102.969,VALID,164.922,VALID,22.7445,VALID,157,VALID,0,
2016-04-04, 08:38:04,VALID,919.431,VALID,0,VALID,102.802,VALID,171.046,VALID,22.7836,VALID,159,VALID,0,
2016-04-04, 08:39:04,VALID,919.475,VALID,0,VALID,102.459,VALID,178.782,VALID,22.8421,VALID,131,VALID,0,
2016-04-04, 08:40:04,VALID,919.512,VALID,0,VALID,102.283,VALID,188.882,VALID,22.8616,VALID,170,VALID,0,
2016-04-04, 08:41:04,VALID,919.543,VALID,0,VALID,102.375,VALID,200.593,VALID,22.8829,VALID,172,VALID,0,
2016-04-04, 08:42:04,VALID,919.53,VALID,0,VALID,102.161,VALID,214.453,VALID,22.8812,VALID,171,VALID,0,
2016-04-04, 08:43:04,VALID,919.515,VALID,0,VALID,102.245,VALID,223.907,VALID,22.8616,VALID,172,VALID,0,
2016-04-04, 08:44:04,VALID,919.549,VALID,0,VALID,102.047,VALID,247.867,VALID,22.8812,VALID,154,VALID,0,
2016-04-04, 08:45:04,VALID,919.537,VALID,0,VALID,101.895,VALID,263.768,VALID,22.938,VALID,161,VALID,0,
2016-04-04, 08:46:04,VALID,919.544,VALID,0,VALID,101.544,VALID,287.835,VALID,23.0568,VALID,159,VALID,0,
2016-04-04, 08:47:04,VALID,919.56,VALID,0,VALID,101.208,VALID,314.05,VALID,23.1349,VALID,158,VALID,0,
2016-04-04, 08:48:04,VALID,919.526,VALID,0,VALID,100.522,VALID,330.704,VALID,23.1935,VALID,171,VALID,0,
2016-04-04, 08:49:04,VALID,919.527,VALID,0,VALID,99.8972,VALID,347.465,VALID,23.3106,VALID,166,VALID,0,
2016-04-04, 08:50:04,VALID,919.512,VALID,0,VALID,97.0156,VALID,358.424,VALID,23.3674,VALID,143,VALID,0,
2016-04-04, 08:51:04,VALID,919.516,VALID,0,VALID,97.0003,VALID,362.184,VALID,23.3283,VALID,135,VALID,0,
2016-04-04, 08:52:04,VALID,919.527,VALID,0,VALID,93.9815,VALID,364.011,VALID,23.3674,VALID,148,VALID,0.0191406,
2016-04-04, 08:53:04,VALID,919.509,VALID,0,VALID,98.8376,VALID,362.077,VALID,23.465,VALID,161,VALID,0,
2016-04-04, 08:54:04,VALID,919.509,VALID,0,VALID,92.777,VALID,379.482,VALID,23.5235,VALID,138,VALID,0,
2016-04-04, 08:55:04,VALID,919.505,VALID,0,VALID,93.6537,VALID,383.028,VALID,23.6211,VALID,148,VALID,0,
2016-04-04, 08:56:04,VALID,919.462,VALID,0,VALID,91.1456,VALID,382.92,VALID,23.6406,VALID,91,VALID,0.00195313,
2016-04-04, 08:57:04,VALID,919.496,VALID,0,VALID,97.9914,VALID,406.342,VALID,23.7382,VALID,111,VALID,0,
2016-04-04, 08:58:04,VALID,919.524,VALID,0,VALID,86.846,VALID,437.071,VALID,23.7968,VALID,144,VALID,0.275781,
2016-04-04, 08:59:04,VALID,919.486,VALID,0,VALID,93.7909,VALID,428.905,VALID,23.7773,VALID,129,VALID,0,
2016-04-04, 09:00:04,VALID,919.474,VALID,0,VALID,93.9815,VALID,432.236,VALID,23.9335,VALID,101,VALID,0.0105469,
2016-04-04, 09:01:04,VALID,919.464,VALID,0,VALID,90.1926,VALID,430.517,VALID,24.1482,VALID,46,VALID,0.163281,
2016-04-04, 09:02:04,VALID,919.462,VALID,0,VALID,92.6016,VALID,456.195,VALID,24.402,VALID,33,VALID,0,
2016-04-04, 09:03:04,VALID,919.456,VALID,0,VALID,84.8791,VALID,448.889,VALID,24.5973,VALID,113,VALID,0,
2016-04-04, 09:04:04,VALID,919.467,VALID,0,VALID,82.958,VALID,473.923,VALID,24.8121,VALID,169,VALID,0,
2016-04-04, 09:05:04,VALID,919.492,VALID,0,VALID,80.5795,VALID,449.749,VALID,25.0855,VALID,169,VALID,0,
2016-04-04, 09:06:04,VALID,919.516,VALID,0,VALID,76.3256,VALID,452.757,VALID,25.2827,VALID,173,VALID,0,
2016-04-04, 09:07:04,VALID,919.529,VALID,0,VALID,75.6395,VALID,503.899,VALID,25.3003,VALID,187,VALID,0,
2016-04-04, 09:08:04,VALID,919.471,VALID,0,VALID,75.0983,VALID,518.296,VALID,25.3394,VALID,200,VALID,0,
2016-04-04, 09:09:04,VALID,919.487,VALID,0,VALID,75.3498,VALID,523.346,VALID,25.4565,VALID,212,VALID,0,
2016-04-04, 09:10:04,VALID,919.511,VALID,0,VALID,75.3803,VALID,530.222,VALID,25.5347,VALID,206,VALID,0,
2016-04-04, 09:11:04,VALID,919.49,VALID,0,VALID,74.8772,VALID,529.148,VALID,25.437,VALID,192,VALID,0,
2016-04-04, 09:12:04,VALID,919.538,VALID,0,VALID,75.5328,VALID,530.759,VALID,25.4156,VALID,136,VALID,0,
2016-04-04, 09:13:04,VALID,919.536,VALID,0,VALID,75.4108,VALID,514.858,VALID,25.4175,VALID,139,VALID,0,
2016-04-04, 09:14:04,VALID,919.508,VALID,0,VALID,75.0754,VALID,489.824,VALID,25.4546,VALID,186,VALID,0,
2016-04-04, 09:15:04,VALID,919.523,VALID,0,VALID,74.1606,VALID,506.263,VALID,25.5523,VALID,191,VALID,0.127734,
2016-04-04, 09:16:04,VALID,919.547,VALID,0,VALID,74.7247,VALID,527.106,VALID,25.5523,VALID,154,VALID,0,
2016-04-04, 09:17:04,VALID,919.552,VALID,0,VALID,74.8924,VALID,532.263,VALID,25.5718,VALID,177,VALID,0,
2016-04-04, 09:18:04,VALID,919.554,VALID,0,VALID,73.9319,VALID,551.603,VALID,25.6694,VALID,206,VALID,0,
2016-04-04, 09:19:04,VALID,919.546,VALID,0,VALID,74.6637,VALID,553.644,VALID,25.8062,VALID,182,VALID,0,
2016-04-04, 09:20:04,VALID,919.543,VALID,0,VALID,73.1619,VALID,565.248,VALID,25.8843,VALID,159,VALID,0,
2016-04-04, 09:21:04,VALID,919.534,VALID,0,VALID,73.4516,VALID,550.314,VALID,25.7847,VALID,167,VALID,0.00585938,
2016-04-04, 09:22:04,VALID,919.558,VALID,0,VALID,73.6803,VALID,561.38,VALID,25.689,VALID,160,VALID,0,
2016-04-04, 09:23:04,VALID,919.518,VALID,0,VALID,74.2826,VALID,584.372,VALID,25.7847,VALID,187,VALID,0.00429688,
2016-04-04, 09:24:04,VALID,919.549,VALID,0,VALID,73.7642,VALID,601.241,VALID,25.9234,VALID,132,VALID,0.933203,
2016-04-04, 09:25:04,VALID,919.573,VALID,0,VALID,73.9319,VALID,614.886,VALID,25.9019,VALID,135,VALID,0.294141,
2016-04-04, 09:26:04,VALID,919.535,VALID,0,VALID,73.0476,VALID,352.622,VALID,25.9214,VALID,102,VALID,0.0894531,
2016-04-04, 09:27:04,VALID,919.594,VALID,0,VALID,73.8252,VALID,616.497,VALID,25.7847,VALID,151,VALID,0.00195313,
2016-04-04, 09:28:04,VALID,919.61,VALID,0,VALID,73.2839,VALID,523.776,VALID,25.689,VALID,138,VALID,0.0710938,
2016-04-04, 09:29:04,VALID,919.647,VALID,0,VALID,72.4301,VALID,620.902,VALID,25.6089,VALID,151,VALID,1.1168,
2016-04-04, 09:30:04,VALID,919.625,VALID,0,VALID,73.0857,VALID,288.909,VALID,25.6109,VALID,175,VALID,0.700391,
2016-04-04, 09:31:04,VALID,919.618,VALID,0,VALID,72.0489,VALID,228.098,VALID,25.6499,VALID,139,VALID,0.727344,
2016-04-04, 09:32:04,VALID,919.66,VALID,0,VALID,74.153,VALID,344.456,VALID,25.689,VALID,140,VALID,0,
2016-04-04, 09:33:04,VALID,919.67,VALID,0,VALID,72.6207,VALID,587.058,VALID,25.7456,VALID,166,VALID,0,
2016-04-04, 09:34:04,VALID,919.652,VALID,0,VALID,72.8875,VALID,644.862,VALID,25.8237,VALID,176,VALID,0,
2016-04-04, 09:35:04,VALID,919.654,VALID,0,VALID,72.148,VALID,661.408,VALID,25.9995,VALID,176,VALID,0.557031,
2016-04-04, 09:36:04,VALID,919.665,VALID,0,VALID,74.74,VALID,628.316,VALID,26.0581,VALID,38,VALID,0.562891,
2016-04-04, 09:37:04,VALID,919.687,VALID,0,VALID,71.7821,VALID,605.001,VALID,26.314,VALID,93,VALID,0.191406,
2016-04-04, 09:38:04,VALID,919.649,VALID,0,VALID,73.322,VALID,305.67,VALID,26.3726,VALID,104,VALID,0,
2016-04-04, 09:39:04,VALID,919.684,VALID,0,VALID,70.913,VALID,601.133,VALID,26.2534,VALID,129,VALID,0,
2016-04-04, 09:40:04,VALID,919.659,VALID,0,VALID,69.1368,VALID,607.365,VALID,26.0581,VALID,136,VALID,2.78477,
2016-04-04, 09:41:04,VALID,919.642,VALID,0,VALID,72.27,VALID,246.9,VALID,25.8823,VALID,121,VALID,0.741016,
2016-04-04, 09:42:04,VALID,919.654,VALID,0,VALID,72.2319,VALID,227.668,VALID,25.8823,VALID,174,VALID,0,
2016-04-04, 09:43:04,VALID,919.646,VALID,0,VALID,72.3767,VALID,264.198,VALID,25.8628,VALID,122,VALID,0,
2016-04-04, 09:44:04,VALID,919.669,VALID,0,VALID,73.1391,VALID,716.847,VALID,25.8823,VALID,49,VALID,0.569922,
2016-04-04, 09:45:04,VALID,919.685,VALID,0,VALID,72.7426,VALID,744.46,VALID,25.8628,VALID,95,VALID,0.000390625,
2016-04-04, 09:46:04,VALID,919.684,VALID,0,VALID,69.7924,VALID,710.508,VALID,25.8648,VALID,94,VALID,2.02148,
2016-04-04, 09:47:04,VALID,919.647,VALID,0,VALID,72.5749,VALID,506.8,VALID,25.7847,VALID,40,VALID,0.934375,
2016-04-04, 09:48:04,VALID,919.629,VALID,0,VALID,74.5951,VALID,227.56,VALID,25.9019,VALID,89,VALID,0,
2016-04-04, 09:49:04,VALID,919.679,VALID,0,VALID,72.0108,VALID,197.369,VALID,25.8237,VALID,115,VALID,0.257813,
2016-04-04, 09:50:04,VALID,919.672,VALID,0,VALID,69.8686,VALID,219.287,VALID,25.6284,VALID,96,VALID,0.5,
2016-04-04, 09:51:04,VALID,919.632,VALID,0,VALID,72.4911,VALID,372.713,VALID,25.5113,VALID,54,VALID,1.91562,
2016-04-04, 09:52:04,VALID,919.649,VALID,0,VALID,70.7682,VALID,669.573,VALID,25.5132,VALID,134,VALID,0.719922,
2016-04-04, 09:53:04,VALID,919.677,VALID,0,VALID,73.1314,VALID,668.929,VALID,25.5698,VALID,140,VALID,0.297266,
2016-04-04, 09:54:04,VALID,919.65,VALID,0,VALID,73.4974,VALID,341.555,VALID,25.7847,VALID,110,VALID,1.10078,
2016-04-04, 09:55:04,VALID,919.679,VALID,0,VALID,70.9816,VALID,397.425,VALID,25.9214,VALID,142,VALID,1.67656,
2016-04-04, 09:56:04,VALID,919.68,VALID,0,VALID,71.2637,VALID,221.651,VALID,25.9019,VALID,151,VALID,2.16367,
2016-04-04, 09:57:04,VALID,919.671,VALID,0,VALID,72.1175,VALID,295.033,VALID,25.8433,VALID,112,VALID,0.392969,
2016-04-04, 09:58:04,VALID,919.651,VALID,0,VALID,70.2498,VALID,726.087,VALID,25.7261,VALID,108,VALID,0.696484,
2016-04-04, 09:59:04,VALID,919.626,VALID,0,VALID,70.6996,VALID,716.955,VALID,25.7847,VALID,112,VALID,0.0578125,
2016-04-04, 10:00:04,VALID,919.566,VALID,0,VALID,73.4821,VALID,738.873,VALID,25.8648,VALID,60,VALID,1.6832,
2016-04-04, 10:01:04,VALID,919.614,VALID,0,VALID,72.2471,VALID,743.815,VALID,26.1362,VALID,71,VALID,0.0289063,
2016-04-04, 10:02:04,VALID,919.617,VALID,0,VALID,70.4937,VALID,501.32,VALID,26.4292,VALID,100,VALID,0.0371094,
2016-04-04, 10:03:04,VALID,919.624,VALID,0,VALID,68.5116,VALID,273.223,VALID,26.4683,VALID,81,VALID,0.979297,
2016-04-04, 10:04:04,VALID,919.653,VALID,0,VALID,69.2587,VALID,291.166,VALID,26.3902,VALID,86,VALID,0.682813,
2016-04-04, 10:05:04,VALID,919.67,VALID,0,VALID,69.2206,VALID,721.467,VALID,26.2534,VALID,122,VALID,1.35781,
2016-04-04, 10:06:04,VALID,919.666,VALID,0,VALID,68.9767,VALID,731.674,VALID,26.0757,VALID,96,VALID,1.03242,
2016-04-04, 10:07:04,VALID,919.646,VALID,0,VALID,70.3108,VALID,347.572,VALID,26.0386,VALID,114,VALID,0.648828,
2016-04-04, 10:08:04,VALID,919.631,VALID,0,VALID,71.5153,VALID,230.246,VALID,26.1167,VALID,105,VALID,0.714844,
2016-04-04, 10:09:04,VALID,919.604,VALID,0,VALID,69.1596,VALID,739.517,VALID,26.0581,VALID,66,VALID,0.639453,
2016-04-04, 10:10:04,VALID,919.631,VALID,0,VALID,71.2484,VALID,743.923,VALID,26.0581,VALID,91,VALID,0.00742187,
2016-04-04, 10:11:04,VALID,919.599,VALID,0,VALID,71.096,VALID,750.584,VALID,26.0581,VALID,105,VALID,1.18789,
2016-04-04, 10:12:04,VALID,919.581,VALID,0,VALID,70.509,VALID,760.468,VALID,26.1558,VALID,75,VALID,0.965234,
2016-04-04, 10:13:04,VALID,919.57,VALID,0,VALID,69.0758,VALID,375.829,VALID,26.312,VALID,93,VALID,0.765234,
2016-04-04, 10:14:04,VALID,919.572,VALID,0,VALID,68.9081,VALID,751.873,VALID,26.4097,VALID,87,VALID,1.56875,
2016-04-04, 10:15:04,VALID,919.515,VALID,0,VALID,68.7098,VALID,756.278,VALID,26.3922,VALID,118,VALID,1.37695,
2016-04-04, 10:16:04,VALID,919.514,VALID,0,VALID,69.1673,VALID,334.357,VALID,26.3902,VALID,113,VALID,1.80195,
2016-04-04, 10:17:04,VALID,919.51,VALID,0,VALID,68.2067,VALID,241.85,VALID,26.3531,VALID,84,VALID,1.95781,
2016-04-04, 10:18:04,VALID,919.476,VALID,0,VALID,70.3031,VALID,715.451,VALID,26.2534,VALID,48,VALID,0.373437,
2016-04-04, 10:19:04,VALID,919.476,VALID,0,VALID,71.8507,VALID,743.923,VALID,26.3316,VALID,62,VALID,0.55,
2016-04-04, 10:20:04,VALID,919.473,VALID,0,VALID,70.2955,VALID,678.169,VALID,26.4488,VALID,42,VALID,0.34375,
2016-04-04, 10:21:04,VALID,919.468,VALID,0,VALID,66.5067,VALID,655.176,VALID,26.5855,VALID,38,VALID,0.895703,
2016-04-04, 10:22:04,VALID,919.497,VALID,0,VALID,67.1089,VALID,678.491,VALID,26.7809,VALID,115,VALID,0.0222656,
2016-04-04, 10:23:04,VALID,919.521,VALID,0,VALID,64.3264,VALID,716.74,VALID,26.7613,VALID,146,VALID,1.60195,
2016-04-04, 10:24:04,VALID,919.495,VALID,0,VALID,66.5448,VALID,756.493,VALID,26.8024,VALID,157,VALID,0.173828,
2016-04-04, 10:25:04,VALID,919.433,VALID,0,VALID,65.7825,VALID,732.964,VALID,26.9372,VALID,68,VALID,1.97734,
2016-04-04, 10:26:04,VALID,919.46,VALID,0,VALID,66.0721,VALID,358.316,VALID,26.859,VALID,13,VALID,1.58984,
2016-04-04, 10:27:04,VALID,919.422,VALID,0,VALID,65.813,VALID,734.683,VALID,26.7613,VALID,16,VALID,0.196094,
2016-04-04, 10:28:04,VALID,919.401,VALID,0,VALID,66.9946,VALID,770.138,VALID,26.7593,VALID,47,VALID,1.01367,
2016-04-04, 10:29:04,VALID,919.423,VALID,0,VALID,65.6452,VALID,707.93,VALID,26.7809,VALID,48,VALID,0.0195313,
2016-04-04, 10:30:04,VALID,919.397,VALID,0,VALID,67.6807,VALID,755.419,VALID,26.7398,VALID,37,VALID,0.216406,
2016-04-04, 10:31:04,VALID,919.363,VALID,0,VALID,68.3744,VALID,527.321,VALID,26.859,VALID,57,VALID,0.0398437,
2016-04-04, 10:32:04,VALID,919.323,VALID,0,VALID,66.6134,VALID,276.876,VALID,26.8395,VALID,26,VALID,0.528516,
2016-04-04, 10:33:04,VALID,919.315,VALID,0,VALID,67.7874,VALID,366.804,VALID,26.8004,VALID,5,VALID,1.04883,
2016-04-04, 10:34:04,VALID,919.294,VALID,0,VALID,66.0035,VALID,682.466,VALID,26.9156,VALID,2,VALID,0.00585938,
2016-04-04, 10:35:04,VALID,919.269,VALID,0,VALID,66.8574,VALID,308.356,VALID,26.9762,VALID,13,VALID,1.37969,
2016-04-04, 10:36:04,VALID,919.261,VALID,0,VALID,66.0416,VALID,342.415,VALID,26.8395,VALID,22,VALID,1.57734,
2016-04-04, 10:37:04,VALID,919.236,VALID,0,VALID,67.9018,VALID,683.863,VALID,26.8199,VALID,16,VALID,1.70703,
2016-04-04, 10:38:04,VALID,919.24,VALID,0,VALID,67.9094,VALID,676.449,VALID,26.8785,VALID,27,VALID,1.35938,
2016-04-04, 10:39:04,VALID,919.239,VALID,0,VALID,65.2488,VALID,357.886,VALID,26.9176,VALID,50,VALID,1.05977,
2016-04-04, 10:40:04,VALID,919.205,VALID,0,VALID,66.9641,VALID,761.006,VALID,26.8981,VALID,40,VALID,2.13789,
2016-04-04, 10:41:04,VALID,919.207,VALID,0,VALID,65.8358,VALID,772.932,VALID,26.9156,VALID,48,VALID,0.0195313,
2016-04-04, 10:42:04,VALID,919.205,VALID,0,VALID,65.386,VALID,777.444,VALID,27.1325,VALID,101,VALID,0.480859,
2016-04-04, 10:43:04,VALID,919.23,VALID,0,VALID,65.0887,VALID,782.279,VALID,27.2693,VALID,144,VALID,0.579297,
2016-04-04, 10:44:04,VALID,919.213,VALID,0,VALID,67.3453,VALID,796.461,VALID,27.1911,VALID,99,VALID,0.0855469,
2016-04-04, 10:45:04,VALID,919.239,VALID,0,VALID,66.6287,VALID,327.051,VALID,27.3475,VALID,47,VALID,1.42617,
2016-04-04, 10:46:04,VALID,919.22,VALID,0,VALID,63.9757,VALID,732.856,VALID,27.3279,VALID,17,VALID,2.13359,
2016-04-04, 10:47:04,VALID,919.242,VALID,0,VALID,64.5475,VALID,797.213,VALID,27.2107,VALID,43,VALID,2.22969,
2016-04-04, 10:48:04,VALID,919.254,VALID,0,VALID,67.0251,VALID,849.645,VALID,27.1695,VALID,38,VALID,2.02969,
2016-04-04, 10:49:04,VALID,919.236,VALID,0,VALID,66.1636,VALID,831.595,VALID,27.2498,VALID,19,VALID,0.742578,
2016-04-04, 10:50:04,VALID,919.194,VALID,0,VALID,63.4192,VALID,660.226,VALID,27.3865,VALID,71,VALID,1.55781,
2016-04-04, 10:51:04,VALID,919.196,VALID,0,VALID,64.86,VALID,713.409,VALID,27.3475,VALID,28,VALID,2.22656,
2016-04-04, 10:52:04,VALID,919.193,VALID,0,VALID,66.2627,VALID,859.744,VALID,27.5233,VALID,56,VALID,0.65,
2016-04-04, 10:53:04,VALID,919.18,VALID,0,VALID,63.8766,VALID,842.554,VALID,27.7187,VALID,91,VALID,0.178125,
2016-04-04, 10:54:04,VALID,919.138,VALID,0,VALID,62.7636,VALID,845.132,VALID,28.0293,VALID,91,VALID,0.108594,
2016-04-04, 10:55:04,VALID,919.121,VALID,0,VALID,62.0775,VALID,842.339,VALID,28.2442,VALID,64,VALID,1.10898,
2016-04-04, 10:56:04,VALID,919.084,VALID,0,VALID,65.3022,VALID,824.503,VALID,28.1096,VALID,34,VALID,2.92812,
2016-04-04, 10:57:04,VALID,919.105,VALID,0,VALID,64.921,VALID,826.652,VALID,28.2051,VALID,127,VALID,0.198828,
2016-04-04, 10:58:04,VALID,919.122,VALID,0,VALID,61.2084,VALID,820.635,VALID,28.52,VALID,46,VALID,0,
2016-04-04, 10:59:04,VALID,919.026,VALID,0,VALID,58.0676,VALID,820.206,VALID,28.596,VALID,316,VALID,0.494141,
2016-04-04, 11:00:04,VALID,919.004,VALID,0,VALID,57.9303,VALID,823.429,VALID,28.6568,VALID,44,VALID,0,
2016-04-04, 11:01:04,VALID,919.004,VALID,0,VALID,60.7281,VALID,825.578,VALID,28.7937,VALID,27,VALID,0,
2016-04-04, 11:02:04,VALID,919,VALID,0,VALID,59.7828,VALID,797.751,VALID,28.6547,VALID,158,VALID,0,
2016-04-04, 11:03:04,VALID,918.994,VALID,0,VALID,60.4461,VALID,774.221,VALID,28.4766,VALID,168,VALID,1.12656,
2016-04-04, 11:04:04,VALID,919.008,VALID,0,VALID,58.8756,VALID,817.735,VALID,28.4766,VALID,147,VALID,1.09219,
2016-04-04, 11:05:04,VALID,918.979,VALID,0,VALID,59.6913,VALID,835.892,VALID,28.3398,VALID,165,VALID,0.000390625,
2016-04-04, 11:06:04,VALID,919.006,VALID,0,VALID,60.9416,VALID,821.173,VALID,28.3202,VALID,143,VALID,0.225,
2016-04-04, 11:07:04,VALID,918.958,VALID,0,VALID,58.4792,VALID,820.743,VALID,28.3593,VALID,56,VALID,1.94883,